Wind_Speed
17 18 19 19 19 20 21 20 20 17 15 13 14 15 14 14 14 14 14 14 14 14 14 15 15 14 14 14 14 15 16 16 17 17 18 19 20 21 23 24 26 27 28 29
17 18 19 19 18 19 20 20 19 18 16 15 16 16 16 16 16 17 16 15 15 15 16 16 17 16 16 16 17 17 19 19 19 20 21 22 23 24 26 27 28 29 30 31
17 18 18 17 17 19 20 20 19 18 17 17 18 17 18 18 18 18 19 18 17 17 18 18 18 18 19 19 19 20 21 21 22 23 24 24 25 27 28 29 30 31 33 34
18 19 19 17 18 20 20 20 20 19 18 19 19 20 20 20 20 21 21 21 21 20 19 19 20 20 20 21 22 22 23 24 24 25 26 27 28 29 30 32 33 34 35 36
19 20 19 18 18 19 19 19 19 20 20 21 21 21 21 20 19 21 23 23 23 23 22 21 21 22 22 23 23 24 25 26 27 27 28 29 31 32 33 35 36 37 37 38
20 21 19 18 19 20 20 20 20 20 21 21 22 22 22 22 21 22 24 25 25 25 24 24 24 24 24 25 26 26 27 27 28 29 30 32 33 35 36 37 38 39 40 40
21 20 19 18 19 20 21 20 21 21 21 21 22 21 22 23 23 25 25 26 26 26 26 26 25 26 26 26 27 28 29 30 31 32 33 34 36 37 38 39 41 42 43 43
20 20 19 18 19 20 20 21 21 21 22 22 22 22 23 23 24 25 25 24 26 28 28 28 27 27 28 28 29 30 31 32 33 34 36 37 38 40 41 42 43 43 44 44
20 20 19 20 20 20 21 21 22 22 22 23 23 23 24 24 24 25 26 26 28 29 29 29 29 30 30 30 31 31 32 34 36 37 38 39 40 42 43 44 45 45 46 46
21 20 21 21 21 21 21 21 22 22 22 22 23 23 24 24 25 26 26 27 29 31 31 30 30 31 32 32 32 33 35 36 38 40 40 41 43 44 45 46 47 47 47 48
22 22 22 22 22 22 22 21 22 22 23 23 23 23 24 25 26 27 28 29 29 29 30 30 31 32 33 34 35 37 37 39 40 41 42 44 45 46 47 48 49 49 50 51
23 23 23 23 23 23 22 22 22 22 22 23 23 23 23 25 26 26 27 28 29 29 31 32 33 34 36 37 38 39 40 41 42 43 45 46 48 49 49 50 51 53 53 54
24 24 23 23 23 23 23 23 23 23 23 23 23 23 24 24 25 26 27 27 28 30 31 33 34 35 36 38 39 41 42 43 44 46 47 49 50 51 52 52 54 55 55 56
23 23 24 24 23 23 23 24 24 24 24 24 24 25 25 26 26 27 28 29 30 31 32 34 36 37 38 40 41 43 44 46 47 49 50 51 53 54 54 55 55 55 56 57
22 23 24 24 24 24 24 24 24 24 25 25 25 25 26 27 27 28 29 31 32 33 34 36 37 39 40 42 43 45 46 48 50 51 53 54 55 56 57 57 58 58 58 58
22 23 24 24 24 24 24 24 24 25 25 25 26 27 28 28 29 30 31 33 34 35 37 38 40 41 43 45 46 48 49 51 52 53 54 56 57 58 58 59 59 59 60 60
21 22 23 23 24 24 24 24 25 26 26 27 28 29 30 30 31 33 34 35 37 38 39 41 42 44 45 47 48 50 51 52 53 54 56 57 58 59 59 60 60 60 60 60
22 22 24 24 24 25 26 25 25 26 27 28 29 30 32 33 34 35 36 38 39 40 42 43 44 46 47 49 50 52 53 54 56 57 58 59 59 60 60 60 60 60 59 58
22 22 22 22 22 22 24 25 26 28 28 29 31 33 35 36 37 39 40 41 42 43 44 46 47 49 51 52 53 54 55 56 57 58 58 58 58 58 58 58 58 57 56 53
23 23 23 23 24 25 26 28 29 31 33 34 36 37 39 40 42 42 43 44 45 46 47 49 50 52 53 54 54 55 55 56 56 56 56 56 56 55 55 54 53 52 49 46
26 26 27 28 29 30 31 32 33 34 36 38 39 41 42 44 45 45 46 47 48 49 50 51 51 52 52 53 53 54 54 54 54 53 53 53 52 51 50 49 47 45 42 39
29 30 31 32 34 35 36 37 38 39 40 42 43 44 45 45 46 47 48 48 49 50 50 50 50 51 51 51 51 51 51 51 50 50 49 48 47 46 44 43 42 39 37 35
33 34 35 36 37 39 40 41 42 43 44 44 45 46 46 46 46 47 47 47 48 48 49 49 49 49 49 48 48 48 47 47 46 45 44 43 42 41 40 38 36 33 31 29
35 36 37 38 40 41 42 42 43 44 45 45 45 46 46 46 46 46 46 46 46 46 46 46 46 46 45 45 44 44 43 42 41 41 40 39 38 37 35 33 30 27 25 23
38 39 40 41 42 42 43 44 45 45 44 44 44 44 44 44 44 43 43 43 43 43 43 43 43 42 42 41 41 40 39 39 39 38 36 35 34 32 30 28 25 22 20 18
40 41 42 43 43 43 43 43 44 44 43 43 42 42 42 42 42 42 42 42 41 41 41 40 40 39 39 38 37 37 37 37 35 34 32 30 29 27 25 22 19 17 15 14
40 41 42 42 43 43 43 43 42 42 41 41 40 40 40 40 40 40 39 39 39 38 37 37 37 36 35 34 34 34 34 32 31 30 28 26 24 22 19 16 14 12 12 11
Wind_Direction
267 268 266 267 267 267 268 269 271 271 268 262 261 263 260 260 256 252 253 255 253 249 246 245 245 246 248 252 256 260 264 267 271 274 278 283 288 292 295 298 301 303 305 307
265 268 269 269 270 270 269 270 272 270 268 264 263 267 264 262 257 253 252 253 253 252 251 249 249 250 252 256 259 263 268 270 274 277 280 285 288 291 294 296 299 302 304 306
261 266 268 269 272 274 273 273 273 271 269 267 265 266 265 261 258 254 254 254 252 252 254 254 254 255 257 259 263 266 271 273 274 277 281 285 288 291 293 295 298 301 303 305
261 264 267 273 273 275 275 275 274 273 269 266 263 262 263 261 257 257 257 257 256 255 255 256 257 258 261 263 267 270 273 275 276 278 282 286 289 291 293 295 297 300 303 304
262 265 272 273 274 276 274 274 274 273 270 267 264 264 263 263 262 261 259 258 257 255 255 257 260 263 266 268 271 274 276 278 278 281 285 288 290 292 294 296 298 300 302 303
263 266 273 276 275 275 274 274 274 272 269 266 266 265 264 264 265 264 260 256 255 255 257 260 262 265 268 270 274 275 277 280 282 285 287 289 290 292 293 295 298 300 301 302
264 269 272 273 275 275 275 275 270 268 269 269 268 264 261 263 264 264 259 254 253 256 259 261 263 265 269 272 275 276 278 281 282 284 286 288 290 292 294 297 298 299 300 300
266 268 269 269 273 275 277 274 273 271 269 269 269 267 264 264 265 264 259 258 257 258 260 261 264 266 269 272 275 276 278 281 283 285 287 289 290 292 293 295 296 297 298 299
263 265 266 267 270 274 276 274 272 273 272 271 268 267 266 267 264 263 261 261 259 259 260 262 265 267 270 273 275 277 280 281 284 286 288 289 290 292 293 294 296 296 296 297
260 264 266 268 269 271 273 274 272 272 270 270 268 266 266 265 263 261 262 263 263 262 263 262 266 270 273 274 276 279 282 283 285 287 288 289 290 291 293 294 294 296 296 296
263 266 268 268 269 269 271 274 274 274 273 274 275 273 267 264 262 262 262 264 265 265 265 267 269 272 275 277 280 281 282 284 285 286 288 289 291 292 293 294 294 295 296 296
264 264 265 265 265 267 270 272 272 272 274 274 272 270 269 266 265 265 267 268 270 269 269 271 273 275 278 278 281 282 283 284 286 287 287 289 290 291 292 294 294 295 295 296
262 262 263 264 266 268 270 270 271 271 269 268 267 268 269 269 269 270 271 272 273 272 273 274 276 279 280 280 282 283 285 285 286 287 287 289 291 291 292 293 293 294 294 295
263 263 264 265 267 270 272 271 269 269 268 267 267 269 270 271 272 274 274 274 274 275 277 279 280 282 283 284 285 286 286 286 287 288 289 290 291 291 292 292 292 293 293 294
263 264 264 264 265 268 269 269 269 268 267 267 269 271 273 274 276 277 278 279 280 281 282 283 284 284 285 285 286 286 287 288 288 289 290 290 290 291 291 291 292 292 292 293
265 264 264 265 266 266 267 268 267 266 266 269 271 273 275 277 279 281 282 283 284 284 285 286 286 287 287 287 288 288 288 288 289 290 289 290 290 291 291 291 291 292 292 293
271 269 269 269 268 269 272 273 272 273 274 276 278 279 281 282 283 285 285 286 286 287 287 288 288 288 289 289 289 289 290 290 290 291 290 291 291 291 291 291 292 292 293 293
272 272 271 271 271 271 272 272 273 276 277 280 281 284 285 286 287 287 288 288 288 289 289 290 290 290 290 291 291 291 291 291 291 291 291 291 292 292 292 292 293 293 293 293
272 272 272 273 277 277 275 274 277 278 280 282 284 285 287 288 289 289 290 290 290 291 291 291 292 292 292 292 292 292 292 292 292 292 292 293 293 293 293 293 294 294 294 293
275 275 276 276 278 278 277 278 280 281 281 283 285 287 288 289 290 290 291 291 291 291 292 293 293 293 293 293 293 293 293 294 294 294 294 294 294 294 295 295 295 295 294 293
273 274 275 277 280 280 280 281 282 283 284 286 288 289 290 291 291 292 292 292 292 293 294 294 294 294 294 294 295 295 295 295 295 295 295 296 296 296 296 296 296 296 295 293
274 275 277 279 280 281 282 283 284 285 288 289 290 291 292 292 293 293 293 293 294 294 295 295 295 295 296 296 296 296 296 296 297 297 297 298 298 299 298 298 298 296 294 293
278 279 280 281 283 285 285 286 288 290 292 293 293 293 294 293 293 293 293 294 294 295 295 296 296 297 297 297 297 297 297 297 298 298 299 299 300 300 300 300 299 297 294 293
279 279 281 283 286 287 288 290 291 293 293 294 294 294 294 294 294 295 295 295 295 296 296 296 296 297 297 297 298 298 298 299 300 300 300 300 300 301 301 301 301 299 294 292
281 282 285 286 288 289 290 291 292 293 293 294 295 295 295 296 296 296 295 296 296 297 297 297 298 298 299 299 299 299 299 300 301 301 301 300 301 302 303 302 299 296 295 292
285 285 286 288 289 290 291 292 293 293 294 294 295 295 296 296 296 296 296 297 297 297 297 298 298 299 299 300 300 300 301 302 302 301 301 301 302 302 303 301 296 292 293 295
288 289 290 290 291 292 293 294 295 295 296 296 296 296 297 297 297 297 297 298 298 298 298 298 299 299 299 300 301 303 304 304 303 303 302 302 302 302 301 301 297 291 291 291
Height
5826 5826 5826 5827 5827 5827 5827 5828 5829 5830 5831 5832 5832 5832 5833 5833 5833 5833 5833 5833 5833 5833 5833 5833 5833 5834 5834 5834 5834 5834 5833 5833 5832 5831 5830 5829 5828 5827 5825 5823 5821 5819 5816 5813
5820 5821 5821 5821 5822 5822 5822 5823 5824 5825 5826 5827 5828 5828 5828 5829 5829 5830 5830 5830 5830 5829 5829 5829 5829 5829 5829 5829 5829 5828 5827 5827 5826 5825 5824 5823 5822 5820 5818 5816 5814 5812 5808 5806
5815 5815 5815 5816 5817 5817 5817 5818 5819 5820 5822 5822 5823 5823 5823 5824 5824 5825 5825 5825 5825 5825 5825 5824 5824 5824 5824 5823 5823 5823 5822 5821 5820 5819 5817 5816 5814 5813 5811 5809 5807 5804 5801 5798
5809 5811 5810 5814 5812 5812 5812 5813 5813 5815 5816 5816 5816 5817 5817 5818 5818 5819 5819 5819 5819 5819 5819 5819 5819 5818 5818 5817 5816 5816 5815 5814 5812 5811 5810 5809 5807 5805 5803 5801 5798 5796 5792 5789
5804 5804 5805 5807 5807 5806 5806 5807 5808 5809 5809 5810 5810 5810 5811 5811 5812 5812 5812 5812 5812 5812 5812 5812 5812 5811 5811 5810 5809 5808 5807 5806 5805 5803 5802 5800 5799 5796 5794 5792 5789 5786 5783 5780
5798 5799 5800 5802 5801 5800 5802 5802 5803 5802 5803 5803 5803 5804 5805 5804 5804 5804 5805 5805 5805 5805 5805 5805 5804 5804 5804 5803 5802 5801 5799 5798 5797 5795 5793 5792 5790 5787 5785 5782 5779 5776 5773 5769
5792 5793 5794 5796 5795 5795 5797 5797 5796 5796 5796 5796 5796 5797 5797 5797 5797 5797 5796 5797 5797 5797 5797 5797 5796 5796 5795 5795 5794 5793 5791 5790 5788 5786 5785 5783 5780 5778 5775 5772 5769 5766 5763 5759
5787 5788 5791 5789 5789 5790 5790 5789 5789 5789 5789 5789 5789 5789 5789 5789 5789 5789 5789 5789 5789 5789 5789 5789 5788 5788 5787 5786 5785 5784 5783 5781 5779 5777 5775 5773 5770 5767 5764 5762 5758 5755 5751 5748
5782 5784 5784 5783 5783 5783 5783 5782 5782 5782 5782 5782 5782 5782 5782 5782 5782 5782 5781 5781 5781 5781 5781 5780 5780 5779 5779 5777 5776 5775 5773 5771 5769 5767 5765 5762 5760 5757 5754 5750 5747 5743 5739 5736
5775 5776 5777 5777 5777 5777 5776 5776 5775 5775 5775 5775 5775 5774 5774 5774 5774 5774 5773 5773 5773 5772 5772 5771 5771 5770 5769 5767 5766 5765 5763 5761 5759 5757 5754 5751 5749 5745 5742 5738 5735 5731 5727 5723
5768 5770 5770 5770 5770 5770 5770 5769 5769 5768 5768 5768 5767 5767 5766 5766 5766 5766 5765 5765 5764 5763 5763 5762 5761 5760 5759 5757 5756 5754 5752 5750 5748 5746 5743 5740 5736 5733 5729 5726 5721 5718 5714 5709
5762 5763 5763 5763 5763 5763 5763 5763 5762 5762 5761 5760 5760 5759 5759 5758 5758 5757 5757 5756 5756 5755 5754 5753 5752 5750 5749 5747 5746 5744 5741 5739 5736 5733 5730 5727 5724 5720 5716 5712 5708 5703 5699 5694
5754 5755 5755 5755 5755 5755 5755 5755 5755 5754 5754 5753 5753 5752 5751 5751 5750 5749 5749 5748 5747 5746 5745 5744 5742 5741 5739 5737 5735 5732 5729 5727 5724 5720 5717 5713 5710 5706 5702 5698 5693 5688 5683 5679
5747 5748 5748 5748 5748 5748 5748 5747 5747 5747 5746 5746 5745 5744 5744 5743 5742 5742 5740 5739 5738 5737 5735 5734 5732 5730 5727 5725 5723 5720 5717 5714 5710 5707 5703 5699 5695 5691 5687 5683 5679 5674 5669 5663
5740 5741 5741 5741 5741 5741 5740 5740 5740 5739 5738 5738 5737 5736 5736 5735 5734 5733 5731 5730 5728 5727 5725 5723 5721 5718 5715 5713 5710 5707 5703 5700 5696 5692 5688 5684 5679 5675 5671 5666 5662 5657 5653 5647
5734 5734 5734 5734 5734 5733 5733 5732 5732 5731 5731 5730 5729 5728 5727 5726 5725 5723 5722 5720 5718 5716 5714 5711 5709 5706 5703 5700 5696 5693 5689 5685 5681 5677 5672 5668 5663 5658 5654 5649 5644 5639 5634 5629
5727 5727 5727 5726 5726 5725 5725 5724 5724 5723 5722 5721 5720 5719 5718 5716 5715 5713 5711 5709 5707 5705 5702 5699 5696 5693 5689 5686 5682 5678 5674 5670 5665 5660 5656 5651 5646 5641 5636 5631 5626 5621 5616 5611
5720 5720 5720 5719 5719 5718 5717 5716 5715 5714 5713 5712 5711 5710 5708 5707 5705 5703 5700 5698 5695 5692 5689 5686 5682 5679 5675 5671 5667 5663 5658 5653 5649 5644 5639 5634 5628 5623 5618 5612 5607 5603 5598 5593
5713 5712 5712 5711 5710 5710 5709 5708 5707 5706 5704 5703 5702 5700 5698 5696 5694 5691 5688 5685 5682 5679 5675 5672 5668 5664 5660 5655 5651 5646 5641 5636 5631 5626 5621 5616 5610 5605 5599 5594 5589 5584 5579 5575
5706 5705 5705 5703 5702 5701 5700 5699 5698 5697 5695 5693 5691 5689 5687 5685 5682 5679 5676 5672 5668 5665 5661 5657 5653 5649 5644 5639 5634 5629 5624 5619 5614 5609 5603 5598 5593 5588 5582 5577 5572 5567 5563 5559
5698 5697 5696 5695 5694 5692 5691 5690 5688 5686 5684 5682 5680 5677 5674 5671 5668 5665 5662 5658 5654 5650 5646 5642 5637 5632 5627 5623 5618 5613 5608 5603 5597 5592 5587 5582 5577 5572 5567 5562 5557 5553 5549 5546
5689 5688 5687 5685 5684 5682 5680 5679 5677 5675 5672 5670 5667 5664 5661 5658 5654 5651 5647 5643 5639 5635 5631 5626 5621 5617 5612 5607 5602 5597 5592 5587 5582 5577 5572 5567 5562 5557 5553 5548 5544 5540 5537 5534
5679 5678 5676 5675 5673 5671 5669 5667 5664 5662 5659 5656 5653 5650 5647 5643 5640 5636 5632 5628 5624 5620 5615 5611 5606 5601 5597 5592 5587 5582 5578 5573 5568 5563 5558 5554 5549 5545 5541 5537 5533 5529 5526 5524
5669 5667 5666 5664 5662 5659 5657 5654 5651 5648 5645 5642 5639 5635 5632 5629 5625 5621 5617 5613 5609 5605 5601 5596 5592 5587 5583 5578 5574 5569 5565 5560 5556 5551 5547 5542 5538 5534 5530 5526 5523 5520 5517 5516
5659 5656 5654 5652 5650 5647 5644 5641 5638 5635 5632 5629 5625 5621 5618 5614 5611 5607 5603 5599 5595 5591 5587 5583 5579 5575 5570 5566 5562 5557 5553 5549 5544 5540 5536 5532 5528 5524 5521 5518 5515 5513 5511 5509
5647 5645 5642 5639 5637 5634 5631 5628 5625 5622 5619 5616 5612 5608 5604 5601 5597 5593 5590 5586 5582 5578 5574 5570 5567 5563 5559 5555 5551 5546 5542 5538 5534 5529 5526 5522 5519 5516 5513 5510 5508 5507 5506 5505
5635 5632 5629 5627 5624 5621 5618 5615 5612 5609 5605 5602 5599 5596 5592 5588 5584 5581 5577 5574 5570 5567 5563 5559 5555 5552 5548 5544 5540 5536 5532 5528 5524 5520 5517 5514 5511 5508 5506 5504 5503 5502 5502 5501